TimeEDT,TemperatureF,Dew PointF,Humidity,Sea Level PressureIn,VisibilityMPH,Wind Direction,Wind SpeedMPH,Gust SpeedMPH,PrecipitationIn,Events,Conditions,WindDirDegrees,DateUTC
12:54 AM,37.0,30.0,76,29.86,10.0,West,12.7,-,N/A,,Clear,260,2014-03-15 04:54:00
1:54 AM,37.0,30.9,79,29.86,10.0,West,15.0,-,N/A,,Clear,270,2014-03-15 05:54:00
2:54 AM,36.0,30.9,82,29.87,10.0,West,13.8,-,N/A,,Clear,260,2014-03-15 06:54:00
3:54 AM,36.0,30.0,79,29.88,10.0,West,13.8,-,N/A,,Clear,270,2014-03-15 07:54:00
4:54 AM,36.0,28.9,76,29.88,10.0,West,16.1,-,N/A,,Partly Cloudy,270,2014-03-15 08:54:00
5:54 AM,35.1,28.9,78,29.91,10.0,West,12.7,-,N/A,,Clear,270,2014-03-15 09:54:00
6:54 AM,34.0,28.9,82,29.93,10.0,West,10.4,-,N/A,,Partly Cloudy,270,2014-03-15 10:54:00
7:54 AM,34.0,28.9,82,29.96,10.0,West,11.5,-,N/A,,Clear,280,2014-03-15 11:54:00
8:54 AM,34.0,30.0,85,30.00,10.0,West,10.4,-,N/A,,Mostly Cloudy,270,2014-03-15 12:54:00
9:54 AM,36.0,30.0,79,30.03,10.0,West,12.7,-,N/A,,Scattered Clouds,280,2014-03-15 13:54:00
10:54 AM,37.0,28.0,70,30.06,10.0,NW,11.5,-,N/A,,Mostly Cloudy,320,2014-03-15 14:54:00
11:04 AM,37.9,28.0,68,30.05,10.0,NW,10.4,-,N/A,,Mostly Cloudy,310,2014-03-15 15:04:00
11:54 AM,37.9,28.0,68,30.09,10.0,WNW,9.2,-,N/A,,Mostly Cloudy,290,2014-03-15 15:54:00
12:07 PM,37.9,28.0,68,30.08,10.0,NW,6.9,-,N/A,,Mostly Cloudy,310,2014-03-15 16:07:00
12:54 PM,39.9,28.0,63,30.11,10.0,Variable,4.6,-,N/A,,Mostly Cloudy,0,2014-03-15 16:54:00
1:08 PM,39.9,27.0,60,30.10,10.0,West,6.9,-,N/A,,Mostly Cloudy,260,2014-03-15 17:08:00
1:35 PM,41.0,28.9,62,30.11,10.0,NW,8.1,-,N/A,,Mostly Cloudy,310,2014-03-15 17:35:00
1:54 PM,41.0,28.9,62,30.13,10.0,West,10.4,-,N/A,,Mostly Cloudy,270,2014-03-15 17:54:00
2:54 PM,42.1,30.0,62,30.12,10.0,WNW,9.2,18.4,N/A,,Mostly Cloudy,300,2014-03-15 18:54:00
3:54 PM,42.1,28.0,58,30.12,10.0,West,8.1,-,N/A,,Scattered Clouds,270,2014-03-15 19:54:00
4:54 PM,43.0,28.0,56,30.12,10.0,NW,9.2,-,N/A,,Mostly Cloudy,310,2014-03-15 20:54:00
5:54 PM,42.1,27.0,55,30.12,10.0,NNW,6.9,-,N/A,,Mostly Cloudy,340,2014-03-15 21:54:00
6:54 PM,39.9,28.0,63,30.14,10.0,North,8.1,-,N/A,,Mostly Cloudy,360,2014-03-15 22:54:00
7:54 PM,36.0,27.0,70,30.17,10.0,North,5.8,-,N/A,,Partly Cloudy,350,2014-03-15 23:54:00
8:54 PM,34.0,26.1,73,30.18,10.0,North,11.5,-,N/A,,Scattered Clouds,360,2014-03-16 00:54:00
9:54 PM,33.1,25.0,72,30.21,10.0,North,9.2,-,N/A,,Mostly Cloudy,360,2014-03-16 01:54:00
10:54 PM,32.0,23.0,69,30.23,10.0,North,11.5,-,N/A,,Scattered Clouds,360,2014-03-16 02:54:00
11:54 PM,30.9,21.9,69,30.22,10.0,NNE,10.4,-,N/A,,Partly Cloudy,20,2014-03-16 03:54:00